Weather History for Tri-Cities, TN

Change the Weather History Date:

Tuesday, January 1, 2002

  Actual Average Record
Temperature  
Mean Temperature 21 °F 35 °F  
Max Temperature 30 °F 45 °F 74 °F (1952)
Min Temperature 12 °F 25 °F 8 °F (1977)
Degree Days  
Heating Degree Days 44 30  
Month to date heating degree days 30  
Since 1 July heating degree days 1759  
Cooling Degree Days 0 0  
Month to date cooling degree days 0  
Year to date cooling degree days 0  
Moisture  
Dew Point 15 °F    
Average Humidity 85    
Maximum Humidity 100    
Minimum Humidity 54    
Precipitation  
Precipitation 0.00 in 0.10 in 1.03 in (1938)
Month to date precipitation 0.10  
Year to date precipitation 0.10  
Snow  
Snow 0.00 in 0.10 in - ()
Month to date snowfall 0.1  
Since 1 July snowfall 2.8  
Snow Depth -    
Sea Level Pressure  
Sea Level Pressure 30.26 in    
Wind  
Wind Speed 1 mph (NW)    
Max Wind Speed 5 mph    
Max Gust Speed -    
Visibility 7 miles    
Events Fog    
T = Trace of Precipitation, MM = Missing Value Source: NWS Daily Summary

Daily Weather History Graph

Daily Weather History Graph

Search for Another Location

Airport:

Trip Planner

Search our weather history database for the weather conditions in past years. The results will help you decide how hot, cold, wet, or windy it might be!

Date:

Astronomy

Jan. 01, 2002 Rise Set
Actual Time 7:41 AM EST 5:25 PM EST
Civil Twilight 7:12 AM EST 5:53 PM EST
Nautical Twilight 6:40 AM EST 6:25 PM EST
Astronomical Twilight 6:09 AM EST 6:57 PM EST
Moon 8:02 PM EST (1/1) 9:44 AM EST (1/1)
Length of Visible Light 10h 40m
Length of Day
9h 43m
Waning Gibbous, 93% of the Moon is Illuminated
Jan 1
Waning Gibbous
Jan 5
Last Quarter
Jan 13
New
Jan 21
First Quarter
Jan 28
Full

Hourly Weather History & Observations

Time (EST) Temp. Windchill Dew Point Humidity Pressure Visibility Wind Dir Wind Speed Gust Speed Precip Events Conditions
12:53 AM 14.0 °F 8.2 °F 12.9 °F 95% 30.19 in 10.0 mi North 3.5 mph - N/A   Clear
1:53 AM 14.0 °F - 12.9 °F 95% 30.19 in 10.0 mi Calm Calm - N/A   Clear
2:53 AM 12.9 °F - 12.0 °F 96% 30.20 in 10.0 mi Calm Calm - N/A   Clear
3:53 AM 12.9 °F - 12.0 °F 96% 30.21 in 10.0 mi Calm Calm - N/A   Clear
4:43 AM 12.2 °F - 12.2 °F 100% 30.16 in 8.0 mi Calm Calm - N/A   Scattered Clouds
4:53 AM 14.0 °F - 14.0 °F 100% 30.22 in 0.2 mi Calm Calm - N/A Fog Light Freezing Fog
5:22 AM 12.2 °F - 12.2 °F 100% 30.17 in 0.8 mi Calm Calm - N/A   Scattered Clouds
5:32 AM 12.2 °F - 12.2 °F 100% 30.17 in 0.2 mi Calm Calm - N/A Fog Light Freezing Fog
5:53 AM 12.0 °F - 12.0 °F 100% 30.22 in 0.2 mi Calm Calm - N/A Fog Light Freezing Fog
6:53 AM 15.1 °F - 15.1 °F 100% 30.24 in 0.2 mi Calm Calm - N/A Fog Light Freezing Fog
7:53 AM 12.0 °F - 12.0 °F 100% 30.28 in 0.2 mi Calm Calm - N/A Fog Light Freezing Fog
8:53 AM 15.1 °F - 15.1 °F 100% 30.30 in 1.0 mi Calm Calm - N/A   Partly Cloudy
8:59 AM 15.8 °F - 15.8 °F 100% 30.24 in 1.5 mi Calm Calm - N/A   Partly Cloudy
9:53 AM 19.9 °F - 19.9 °F 100% 30.31 in 7.0 mi Calm Calm - N/A   Clear
10:53 AM 19.9 °F - 18.0 °F 92% 30.31 in 10.0 mi Calm Calm - N/A   Partly Cloudy
11:53 AM 23.0 °F - 18.0 °F 81% 30.29 in 10.0 mi Calm Calm - N/A   Scattered Clouds
12:53 PM 26.1 °F 20.5 °F 19.0 °F 75% 30.27 in 10.0 mi Variable 4.6 mph - N/A   Partly Cloudy
1:53 PM 30.0 °F 25.2 °F 17.1 °F 59% 30.25 in 10.0 mi WNW 4.6 mph - N/A   Clear
2:53 PM 30.0 °F - 16.0 °F 56% 30.24 in 10.0 mi Calm Calm - N/A   Clear
3:53 PM 30.9 °F 27.5 °F 16.0 °F 54% 30.25 in 10.0 mi NW 3.5 mph - N/A   Clear
4:53 PM 30.0 °F 26.5 °F 16.0 °F 56% 30.27 in 10.0 mi WSW 3.5 mph - N/A   Clear
5:53 PM 27.0 °F 23.0 °F 16.0 °F 63% 30.29 in 10.0 mi West 3.5 mph - N/A   Clear
6:53 PM 24.1 °F - 17.1 °F 75% 30.30 in 10.0 mi Calm Calm - N/A   Clear
7:53 PM 21.9 °F 17.2 °F 16.0 °F 78% 30.33 in 10.0 mi NE 3.5 mph - N/A   Clear
8:53 PM 23.0 °F 18.4 °F 14.0 °F 68% 30.34 in 10.0 mi NE 3.5 mph - N/A   Clear
9:53 PM 21.9 °F - 14.0 °F 72% 30.33 in 10.0 mi Calm Calm - N/A   Clear
10:53 PM 17.1 °F - 12.0 °F 81% 30.34 in 10.0 mi Calm Calm - N/A   Clear
11:53 PM 17.1 °F - 12.0 °F 81% 30.33 in 10.0 mi Calm Calm - N/A   Clear